Time,TemperatureF,DewpointF,PressureIn,WindDirection,WindDirectionDegrees,WindSpeedMPH,WindSpeedGustMPH,Humidity,HourlyPrecipIn,Conditions,Clouds,dailyrainin,SoftwareType,DateUTC
2013-02-13 00:13:00,46.5,41.0,30.27,SSW,208,1.0,11.0,81,0.00,,,0.00,weatherlink.com 1.10,2013-02-13 08:13:00,
2013-02-13 00:28:00,46.6,41.0,30.27,SW,232,1.0,11.0,80,0.00,,,0.00,weatherlink.com 1.10,2013-02-13 08:28:00,
2013-02-13 00:43:00,46.5,41.0,30.26,South,187,3.0,9.0,81,0.00,,,0.00,weatherlink.com 1.10,2013-02-13 08:43:00,
2013-02-13 00:58:00,46.3,40.0,30.27,SW,217,2.0,9.0,80,0.00,,,0.00,weatherlink.com 1.10,2013-02-13 08:58:00,
2013-02-13 01:13:00,46.1,40.0,30.28,NW,308,0.0,7.0,80,0.00,,,0.00,weatherlink.com 1.10,2013-02-13 09:13:00,
2013-02-13 01:28:00,45.8,40.0,30.28,NNE,18,1.0,7.0,81,0.00,,,0.00,weatherlink.com 1.10,2013-02-13 09:28:00,
2013-02-13 01:43:00,45.4,41.0,30.29,West,272,2.0,6.0,83,0.00,,,0.00,weatherlink.com 1.10,2013-02-13 09:43:00,
2013-02-13 01:58:00,45.2,41.0,30.29,SW,235,1.0,8.0,84,0.00,,,0.00,weatherlink.com 1.10,2013-02-13 09:58:00,
2013-02-13 02:13:00,45.1,41.0,30.29,SW,226,6.0,6.0,85,0.00,,,0.00,weatherlink.com 1.10,2013-02-13 10:13:00,
2013-02-13 02:28:00,45.1,41.0,30.29,SE,138,2.0,8.0,84,0.00,,,0.00,weatherlink.com 1.10,2013-02-13 10:28:00,
2013-02-13 02:43:00,45.0,40.0,30.30,NW,306,1.0,10.0,83,0.00,,,0.00,weatherlink.com 1.10,2013-02-13 10:43:00,
2013-02-13 02:58:00,44.9,40.0,30.30,SE,144,5.0,7.0,82,0.00,,,0.00,weatherlink.com 1.10,2013-02-13 10:58:00,
2013-02-13 03:13:00,44.8,40.0,30.30,West,262,2.0,7.0,82,0.00,,,0.00,weatherlink.com 1.10,2013-02-13 11:13:00,
2013-02-13 03:28:00,44.7,40.0,30.30,WSW,253,0.0,10.0,83,0.00,,,0.00,weatherlink.com 1.10,2013-02-13 11:28:00,
2013-02-13 03:43:00,44.5,40.0,30.30,WSW,258,4.0,11.0,84,0.00,,,0.00,weatherlink.com 1.10,2013-02-13 11:43:00,
2013-02-13 03:58:00,44.4,40.0,30.31,SSW,202,0.0,7.0,85,0.00,,,0.00,weatherlink.com 1.10,2013-02-13 11:58:00,
2013-02-13 04:13:00,44.0,40.0,30.32,SW,229,0.0,6.0,86,0.00,,,0.00,weatherlink.com 1.10,2013-02-13 12:13:00,
2013-02-13 04:29:00,43.6,40.0,30.32,East,98,0.0,4.0,87,0.00,,,0.00,weatherlink.com 1.10,2013-02-13 12:29:00,
2013-02-13 04:43:00,43.1,40.0,30.32,South,179,5.0,5.0,88,0.00,,,0.00,weatherlink.com 1.10,2013-02-13 12:43:00,
2013-02-13 04:59:00,43.0,40.0,30.32,SW,226,0.0,5.0,89,0.00,,,0.00,weatherlink.com 1.10,2013-02-13 12:59:00,
2013-02-13 05:14:00,42.8,40.0,30.33,SSW,201,0.0,5.0,90,0.00,,,0.00,weatherlink.com 1.10,2013-02-13 13:14:00,
2013-02-13 05:28:00,42.6,40.0,30.33,WSW,238,0.0,8.0,90,0.00,,,0.00,weatherlink.com 1.10,2013-02-13 13:28:00,
2013-02-13 05:44:00,42.7,40.0,30.33,ESE,119,0.0,4.0,89,0.00,,,0.00,weatherlink.com 1.10,2013-02-13 13:44:00,
2013-02-13 05:58:00,42.5,40.0,30.34,SE,135,1.0,7.0,90,0.00,,,0.00,weatherlink.com 1.10,2013-02-13 13:58:00,
2013-02-13 06:13:00,42.8,40.0,30.34,SSE,152,0.0,7.0,90,0.00,,,0.00,weatherlink.com 1.10,2013-02-13 14:13:00,
2013-02-13 06:28:00,42.5,40.0,30.34,East,90,0.0,3.0,90,0.00,,,0.00,weatherlink.com 1.10,2013-02-13 14:28:00,
2013-02-13 06:43:00,42.4,40.0,30.34,SSW,196,1.0,4.0,90,0.00,,,0.00,weatherlink.com 1.10,2013-02-13 14:43:00,
2013-02-13 06:58:00,42.5,40.0,30.34,ESE,119,0.0,4.0,91,0.00,,,0.00,weatherlink.com 1.10,2013-02-13 14:58:00,
2013-02-13 07:14:00,42.4,40.0,30.35,ENE,77,0.0,1.0,91,0.00,,,0.00,weatherlink.com 1.10,2013-02-13 15:14:00,
2013-02-13 07:29:00,42.4,40.0,30.35,WSW,241,0.0,4.0,91,0.00,,,0.00,weatherlink.com 1.10,2013-02-13 15:29:00,
2013-02-13 07:44:00,42.5,40.0,30.36,SSE,156,0.0,2.0,91,0.00,,,0.00,weatherlink.com 1.10,2013-02-13 15:44:00,
2013-02-13 07:59:00,42.5,40.0,30.36,ENE,72,0.0,2.0,92,0.00,,,0.00,weatherlink.com 1.10,2013-02-13 15:59:00,
2013-02-13 08:14:00,42.5,40.0,30.37,SSW,200,0.0,2.0,92,0.00,,,0.00,weatherlink.com 1.10,2013-02-13 16:14:00,
2013-02-13 08:29:00,42.7,41.0,30.37,NNW,332,0.0,1.0,92,0.00,,,0.00,weatherlink.com 1.10,2013-02-13 16:29:00,
2013-02-13 08:44:00,43.0,41.0,30.37,ESE,111,0.0,2.0,92,0.00,,,0.00,weatherlink.com 1.10,2013-02-13 16:44:00,
2013-02-13 08:59:00,43.4,41.0,30.38,South,172,0.0,5.0,91,0.00,,,0.00,weatherlink.com 1.10,2013-02-13 16:59:00,
2013-02-13 09:14:00,43.8,41.0,30.39,ESE,118,0.0,5.0,91,0.00,,,0.00,weatherlink.com 1.10,2013-02-13 17:14:00,
2013-02-13 09:29:00,44.3,42.0,30.39,SW,222,1.0,2.0,91,0.00,,,0.00,weatherlink.com 1.10,2013-02-13 17:29:00,
2013-02-13 09:44:00,44.6,42.0,30.39,SSW,206,0.0,1.0,90,0.00,,,0.00,weatherlink.com 1.10,2013-02-13 17:44:00,
2013-02-13 09:59:00,45.0,43.0,30.39,SE,139,0.0,1.0,91,0.00,,,0.00,weatherlink.com 1.10,2013-02-13 17:59:00,
2013-02-13 10:29:00,45.6,42.0,30.40,SSE,150,0.0,2.0,88,0.00,,,0.00,weatherlink.com 1.10,2013-02-13 18:29:00,
2013-02-13 10:44:00,46.1,43.0,30.41,SSW,204,0.0,3.0,88,0.00,,,0.00,weatherlink.com 1.10,2013-02-13 18:44:00,
2013-02-13 10:59:00,46.6,43.0,30.41,SSW,204,0.0,1.0,88,0.00,,,0.00,weatherlink.com 1.10,2013-02-13 18:59:00,
2013-02-13 11:14:00,46.9,43.0,30.41,SSW,202,0.0,4.0,87,0.00,,,0.00,weatherlink.com 1.10,2013-02-13 19:14:00,
2013-02-13 11:29:00,47.1,43.0,30.41,SW,227,0.0,5.0,86,0.00,,,0.00,weatherlink.com 1.10,2013-02-13 19:29:00,
2013-02-13 11:44:00,47.1,43.0,30.41,East,82,0.0,3.0,86,0.00,,,0.00,weatherlink.com 1.10,2013-02-13 19:44:00,
2013-02-13 11:59:00,47.4,43.0,30.41,WSW,244,0.0,4.0,85,0.00,,,0.00,weatherlink.com 1.10,2013-02-13 19:59:00,
2013-02-13 12:14:00,47.6,44.0,30.41,West,276,0.0,3.0,86,0.00,,,0.00,weatherlink.com 1.10,2013-02-13 20:14:00,
2013-02-13 12:29:00,47.9,43.0,30.41,SE,126,0.0,7.0,84,0.00,,,0.00,weatherlink.com 1.10,2013-02-13 20:29:00,
2013-02-13 12:44:00,48.0,43.0,30.41,WSW,250,0.0,2.0,83,0.00,,,0.00,weatherlink.com 1.10,2013-02-13 20:44:00,
2013-02-13 12:59:00,48.3,43.0,30.41,South,172,0.0,2.0,83,0.00,,,0.00,weatherlink.com 1.10,2013-02-13 20:59:00,
2013-02-13 13:14:00,48.5,43.0,30.41,SSW,206,1.0,3.0,81,0.00,,,0.00,weatherlink.com 1.10,2013-02-13 21:14:00,
2013-02-13 13:44:00,49.4,44.0,30.40,WNW,293,0.0,2.0,80,0.00,,,0.00,weatherlink.com 1.10,2013-02-13 21:44:00,
2013-02-13 13:59:00,49.8,44.0,30.41,WNW,293,0.0,2.0,79,0.00,,,0.00,weatherlink.com 1.10,2013-02-13 21:59:00,
2013-02-13 14:14:00,49.9,44.0,30.41,WNW,293,1.0,1.0,79,0.00,,,0.00,weatherlink.com 1.10,2013-02-13 22:14:00,
2013-02-13 14:29:00,49.9,43.0,30.40,WNW,293,0.0,1.0,78,0.00,,,0.00,weatherlink.com 1.10,2013-02-13 22:29:00,
2013-02-13 14:45:00,49.6,43.0,30.40,SW,233,0.0,2.0,77,0.00,,,0.00,weatherlink.com 1.10,2013-02-13 22:45:00,
2013-02-13 15:00:00,49.3,42.0,30.40,SW,235,0.0,6.0,76,0.00,,,0.00,weatherlink.com 1.10,2013-02-13 23:00:00,
2013-02-13 15:14:00,48.9,41.0,30.40,SW,231,0.0,3.0,75,0.00,,,0.00,weatherlink.com 1.10,2013-02-13 23:14:00,
2013-02-13 15:29:00,48.9,42.0,30.41,SW,231,0.0,3.0,76,0.00,,,0.00,weatherlink.com 1.10,2013-02-13 23:29:00,
2013-02-13 15:44:00,48.7,42.0,30.41,SSW,206,0.0,4.0,77,0.00,,,0.00,weatherlink.com 1.10,2013-02-13 23:44:00,
2013-02-13 15:59:00,48.6,42.0,30.41,SSW,196,0.0,2.0,78,0.00,,,0.00,weatherlink.com 1.10,2013-02-13 23:59:00,
2013-02-13 16:14:00,48.3,42.0,30.41,SSW,205,0.0,3.0,79,0.00,,,0.00,weatherlink.com 1.10,2013-02-14 00:14:00,
2013-02-13 16:30:00,48.1,42.0,30.41,SSW,205,0.0,1.0,78,0.00,,,0.00,weatherlink.com 1.10,2013-02-14 00:30:00,
2013-02-13 16:45:00,47.8,42.0,30.41,SSE,152,0.0,2.0,80,0.00,,,0.00,weatherlink.com 1.10,2013-02-14 00:45:00,
2013-02-13 16:59:00,47.4,41.0,30.41,SSW,212,0.0,3.0,79,0.00,,,0.00,weatherlink.com 1.10,2013-02-14 00:59:00,
2013-02-13 17:15:00,46.9,41.0,30.41,SSE,153,0.0,2.0,81,0.00,,,0.00,weatherlink.com 1.10,2013-02-14 01:15:00,
2013-02-13 17:29:00,46.1,41.0,30.41,SE,138,0.0,1.0,82,0.00,,,0.00,weatherlink.com 1.10,2013-02-14 01:29:00,
2013-02-13 17:44:00,45.4,41.0,30.41,ENE,78,0.0,2.0,85,0.00,,,0.00,weatherlink.com 1.10,2013-02-14 01:44:00,
2013-02-13 17:59:00,44.7,41.0,30.41,East,79,0.0,1.0,85,0.00,,,0.00,weatherlink.com 1.10,2013-02-14 01:59:00,
2013-02-13 18:15:00,44.4,41.0,30.42,South,171,0.0,1.0,86,0.00,,,0.00,weatherlink.com 1.10,2013-02-14 02:15:00,
2013-02-13 18:34:00,44.3,41.0,30.42,East,85,0.0,3.0,87,0.00,,,0.00,weatherlink.com 1.10,2013-02-14 02:34:00,
2013-02-13 18:44:00,44.2,41.0,30.42,East,85,0.0,1.0,87,0.00,,,0.00,weatherlink.com 1.10,2013-02-14 02:44:00,
2013-02-13 18:59:00,44.1,40.0,30.43,SSE,150,0.0,3.0,85,0.00,,,0.00,weatherlink.com 1.10,2013-02-14 02:59:00,
2013-02-13 19:14:00,44.1,40.0,30.43,SSE,150,0.0,1.0,86,0.00,,,0.00,weatherlink.com 1.10,2013-02-14 03:14:00,
2013-02-13 19:29:00,44.1,40.0,30.43,SW,214,0.0,2.0,86,0.00,,,0.00,weatherlink.com 1.10,2013-02-14 03:29:00,
2013-02-13 19:45:00,44.0,40.0,30.44,ESE,102,0.0,3.0,86,0.00,,,0.00,weatherlink.com 1.10,2013-02-14 03:45:00,
2013-02-13 20:00:00,43.9,40.0,30.44,SSE,160,0.0,3.0,86,0.00,,,0.00,weatherlink.com 1.10,2013-02-14 04:00:00,
2013-02-13 20:15:00,43.8,41.0,30.44,SSE,154,0.0,1.0,88,0.00,,,0.00,weatherlink.com 1.10,2013-02-14 04:15:00,
2013-02-13 20:45:00,43.4,40.0,30.44,ESE,105,0.0,1.0,87,0.00,,,0.00,weatherlink.com 1.10,2013-02-14 04:45:00,
2013-02-13 21:00:00,43.3,40.0,30.44,ESE,105,1.0,2.0,88,0.00,,,0.00,weatherlink.com 1.10,2013-02-14 05:00:00,
2013-02-13 21:15:00,43.3,40.0,30.45,ESE,105,0.0,2.0,87,0.00,,,0.00,weatherlink.com 1.10,2013-02-14 05:15:00,
2013-02-13 21:30:00,43.2,40.0,30.46,ESE,105,1.0,1.0,87,0.00,,,0.00,weatherlink.com 1.10,2013-02-14 05:30:00,
2013-02-13 21:45:00,43.2,40.0,30.46,South,177,0.0,1.0,87,0.00,,,0.00,weatherlink.com 1.10,2013-02-14 05:45:00,
2013-02-13 22:00:00,43.2,39.0,30.46,South,177,0.0,2.0,86,0.00,,,0.00,weatherlink.com 1.10,2013-02-14 06:00:00,
2013-02-13 22:15:00,43.3,39.0,30.46,South,177,0.0,1.0,85,0.00,,,0.00,weatherlink.com 1.10,2013-02-14 06:15:00,
2013-02-13 22:30:00,43.3,39.0,30.46,South,177,0.0,2.0,86,0.00,,,0.00,weatherlink.com 1.10,2013-02-14 06:30:00,
2013-02-13 22:45:00,43.3,40.0,30.46,South,177,0.0,2.0,87,0.00,,,0.00,weatherlink.com 1.10,2013-02-14 06:45:00,
2013-02-13 23:00:00,43.3,40.0,30.46,South,177,1.0,1.0,88,0.00,,,0.00,weatherlink.com 1.10,2013-02-14 07:00:00,
2013-02-13 23:15:00,43.2,40.0,30.47,ESE,118,1.0,3.0,87,0.00,,,0.00,weatherlink.com 1.10,2013-02-14 07:15:00,
2013-02-13 23:30:00,43.2,39.0,30.47,ESE,118,3.0,4.0,86,0.00,,,0.00,weatherlink.com 1.10,2013-02-14 07:30:00,
2013-02-13 23:45:00,43.2,40.0,30.47,East,89,3.0,5.0,88,0.00,,,0.00,weatherlink.com 1.10,2013-02-14 07:45:00,